Time,TemperatureF,DewpointF,PressureIn,WindDirection,WindDirectionDegrees,WindSpeedMPH,WindSpeedGustMPH,Humidity,HourlyPrecipIn,Conditions,Clouds,dailyrainin,SoftwareType,DateUTC
2013-02-16 00:13:00,24.7,12.0,30.67,WSW,241,2.0,4.0,60,0.00,,,0.00,weatherlink.com 1.10,2013-02-16 07:13:00,
2013-02-16 00:29:00,24.5,13.0,30.66,SW,233,3.0,5.0,62,0.00,,,0.00,weatherlink.com 1.10,2013-02-16 07:29:00,
2013-02-16 00:59:00,26.1,13.0,30.65,South,184,0.0,3.0,57,0.00,,,0.00,weatherlink.com 1.10,2013-02-16 07:59:00,
2013-02-16 01:14:00,25.6,13.0,30.65,South,184,0.0,4.0,59,0.00,,,0.00,weatherlink.com 1.10,2013-02-16 08:14:00,
2013-02-16 01:29:00,26.0,12.0,30.64,WNW,290,2.0,3.0,56,0.00,,,0.00,weatherlink.com 1.10,2013-02-16 08:29:00,
2013-02-16 01:44:00,24.5,12.0,30.64,WSW,249,2.0,4.0,58,0.00,,,0.00,weatherlink.com 1.10,2013-02-16 08:44:00,
2013-02-16 01:59:00,24.2,12.0,30.64,West,270,5.0,7.0,59,0.00,,,0.00,weatherlink.com 1.10,2013-02-16 08:59:00,
2013-02-16 02:14:00,24.4,11.0,30.63,West,280,3.0,5.0,58,0.00,,,0.00,weatherlink.com 1.10,2013-02-16 09:14:00,
2013-02-16 02:29:00,24.8,12.0,30.63,West,268,3.0,6.0,58,0.00,,,0.00,weatherlink.com 1.10,2013-02-16 09:29:00,
2013-02-16 02:44:00,23.2,11.0,30.62,West,277,2.0,6.0,60,0.00,,,0.00,weatherlink.com 1.10,2013-02-16 09:44:00,
2013-02-16 02:59:00,25.0,11.0,30.61,WSW,239,7.0,7.0,55,0.00,,,0.00,weatherlink.com 1.10,2013-02-16 09:59:00,
2013-02-16 03:14:00,23.9,11.0,30.61,West,261,1.0,7.0,57,0.00,,,0.00,weatherlink.com 1.10,2013-02-16 10:14:00,
2013-02-16 03:29:00,22.9,10.0,30.60,West,261,2.0,5.0,58,0.00,,,0.00,weatherlink.com 1.10,2013-02-16 10:29:00,
2013-02-16 03:44:00,20.2,9.0,30.60,West,261,0.0,2.0,62,0.00,,,0.00,weatherlink.com 1.10,2013-02-16 10:44:00,
2013-02-16 03:59:00,21.4,10.0,30.59,WSW,246,7.0,10.0,61,0.00,,,0.00,weatherlink.com 1.10,2013-02-16 10:59:00,
2013-02-16 04:14:00,21.8,10.0,30.59,West,265,3.0,5.0,60,0.00,,,0.00,weatherlink.com 1.10,2013-02-16 11:14:00,
2013-02-16 04:29:00,23.2,10.0,30.58,West,264,4.0,4.0,57,0.00,,,0.00,weatherlink.com 1.10,2013-02-16 11:29:00,
2013-02-16 04:44:00,21.0,9.0,30.58,NW,312,0.0,4.0,60,0.00,,,0.00,weatherlink.com 1.10,2013-02-16 11:44:00,
2013-02-16 04:59:00,19.5,9.0,30.59,SW,220,2.0,5.0,64,0.00,,,0.00,weatherlink.com 1.10,2013-02-16 11:59:00,
2013-02-16 05:14:00,20.5,10.0,30.58,SW,215,6.0,9.0,64,0.00,,,0.00,weatherlink.com 1.10,2013-02-16 12:14:00,
2013-02-16 05:29:00,24.1,11.0,30.57,SW,215,10.0,13.0,57,0.00,,,0.00,weatherlink.com 1.10,2013-02-16 12:29:00,
2013-02-16 05:44:00,22.5,10.0,30.57,SSW,208,5.0,6.0,59,0.00,,,0.00,weatherlink.com 1.10,2013-02-16 12:44:00,
2013-02-16 05:59:00,22.1,10.0,30.57,SW,234,2.0,4.0,60,0.00,,,0.00,weatherlink.com 1.10,2013-02-16 12:59:00,
2013-02-16 06:15:00,19.7,9.0,30.57,WSW,239,4.0,7.0,63,0.00,,,0.00,weatherlink.com 1.10,2013-02-16 13:15:00,
2013-02-16 06:29:00,19.9,9.0,30.57,WSW,251,3.0,5.0,63,0.00,,,0.00,weatherlink.com 1.10,2013-02-16 13:29:00,
2013-02-16 06:44:00,20.3,9.0,30.57,WNW,284,2.0,6.0,62,0.00,,,0.00,weatherlink.com 1.10,2013-02-16 13:44:00,
2013-02-16 06:59:00,21.0,9.0,30.56,SE,129,1.0,4.0,60,0.00,,,0.00,weatherlink.com 1.10,2013-02-16 13:59:00,
2013-02-16 07:14:00,20.8,9.0,30.56,SE,130,0.0,3.0,60,0.00,,,0.00,weatherlink.com 1.10,2013-02-16 14:14:00,
2013-02-16 07:29:00,20.0,8.0,30.57,WNW,289,1.0,5.0,60,0.00,,,0.00,weatherlink.com 1.10,2013-02-16 14:29:00,
2013-02-16 07:45:00,18.4,8.0,30.57,SW,216,5.0,7.0,64,0.00,,,0.00,weatherlink.com 1.10,2013-02-16 14:45:00,
2013-02-16 08:00:00,19.9,8.0,30.56,WSW,241,2.0,4.0,61,0.00,,,0.00,weatherlink.com 1.10,2013-02-16 15:00:00,
2013-02-16 08:15:00,23.5,10.0,30.56,WSW,249,2.0,5.0,57,0.00,,,0.00,weatherlink.com 1.10,2013-02-16 15:15:00,
2013-02-16 08:29:00,25.6,10.0,30.56,SW,219,2.0,6.0,53,0.00,,,0.00,weatherlink.com 1.10,2013-02-16 15:29:00,
2013-02-16 08:44:00,25.7,11.0,30.56,SW,220,3.0,5.0,55,0.00,,,0.00,weatherlink.com 1.10,2013-02-16 15:44:00,
2013-02-16 08:59:00,28.1,12.0,30.56,ENE,71,3.0,5.0,51,0.00,,,0.00,weatherlink.com 1.10,2013-02-16 15:59:00,
2013-02-16 09:14:00,29.7,12.0,30.56,East,96,0.0,7.0,48,0.00,,,0.00,weatherlink.com 1.10,2013-02-16 16:14:00,
2013-02-16 09:30:00,33.5,13.0,30.55,East,97,0.0,1.0,43,0.00,,,0.00,weatherlink.com 1.10,2013-02-16 16:30:00,
2013-02-16 09:45:00,35.9,15.0,30.54,SE,125,3.0,4.0,42,0.00,,,0.00,weatherlink.com 1.10,2013-02-16 16:45:00,
2013-02-16 10:00:00,35.3,16.0,30.53,East,82,2.0,7.0,45,0.00,,,0.00,weatherlink.com 1.10,2013-02-16 17:00:00,
2013-02-16 10:15:00,32.4,15.0,30.53,East,94,6.0,10.0,49,0.00,,,0.00,weatherlink.com 1.10,2013-02-16 17:15:00,
2013-02-16 10:30:00,35.8,15.0,30.53,ESE,114,4.0,9.0,43,0.00,,,0.00,weatherlink.com 1.10,2013-02-16 17:30:00,
2013-02-16 10:45:00,38.9,16.0,30.53,ESE,120,3.0,4.0,39,0.00,,,0.00,weatherlink.com 1.10,2013-02-16 17:45:00,
2013-02-16 11:00:00,39.3,15.0,30.52,ESE,120,2.0,4.0,37,0.00,,,0.00,weatherlink.com 1.10,2013-02-16 18:00:00,
2013-02-16 11:15:00,39.1,14.0,30.52,ESE,114,3.0,8.0,36,0.00,,,0.00,weatherlink.com 1.10,2013-02-16 18:15:00,
2013-02-16 11:30:00,38.5,15.0,30.51,ESE,121,1.0,8.0,38,0.00,,,0.00,weatherlink.com 1.10,2013-02-16 18:30:00,
2013-02-16 11:45:00,39.1,15.0,30.50,SE,129,0.0,5.0,37,0.00,,,0.00,weatherlink.com 1.10,2013-02-16 18:45:00,
2013-02-16 12:00:00,39.6,15.0,30.50,SE,129,2.0,6.0,36,0.00,,,0.00,weatherlink.com 1.10,2013-02-16 19:00:00,
2013-02-16 12:15:00,37.9,15.0,30.49,ESE,109,4.0,7.0,40,0.00,,,0.00,weatherlink.com 1.10,2013-02-16 19:15:00,
2013-02-16 12:30:00,38.5,17.0,30.47,SE,143,4.0,11.0,42,0.00,,,0.00,weatherlink.com 1.10,2013-02-16 19:30:00,
2013-02-16 12:45:00,39.5,18.0,30.46,SSE,152,5.0,8.0,42,0.00,,,0.00,weatherlink.com 1.10,2013-02-16 19:45:00,
2013-02-16 13:00:00,44.2,19.0,30.45,SSE,149,4.0,4.0,36,0.00,,,0.00,weatherlink.com 1.10,2013-02-16 20:00:00,
2013-02-16 13:15:00,46.0,17.0,30.43,SSE,149,0.0,3.0,31,0.00,,,0.00,weatherlink.com 1.10,2013-02-16 20:15:00,
2013-02-16 13:31:00,44.1,20.0,30.42,East,100,8.0,11.0,38,0.00,,,0.00,weatherlink.com 1.10,2013-02-16 20:31:00,
2013-02-16 13:45:00,38.3,21.0,30.41,ESE,102,4.0,9.0,51,0.00,,,0.00,weatherlink.com 1.10,2013-02-16 20:45:00,
2013-02-16 14:00:00,40.2,21.0,30.41,ESE,102,0.0,3.0,46,0.00,,,0.00,weatherlink.com 1.10,2013-02-16 21:00:00,
2013-02-16 14:15:00,43.9,20.0,30.40,ESE,102,1.0,2.0,39,0.00,,,0.00,weatherlink.com 1.10,2013-02-16 21:15:00,
2013-02-16 14:31:00,42.8,22.0,30.39,ESE,110,1.0,5.0,44,0.00,,,0.00,weatherlink.com 1.10,2013-02-16 21:31:00,
2013-02-16 14:45:00,47.0,21.0,30.38,ESE,110,0.0,2.0,36,0.00,,,0.00,weatherlink.com 1.10,2013-02-16 21:45:00,
2013-02-16 15:00:00,46.0,18.0,30.37,SW,216,3.0,5.0,33,0.00,,,0.00,weatherlink.com 1.10,2013-02-16 22:00:00,
2013-02-16 15:16:00,43.2,21.0,30.37,ENE,63,3.0,6.0,42,0.00,,,0.00,weatherlink.com 1.10,2013-02-16 22:16:00,
2013-02-16 15:30:00,39.9,22.0,30.36,East,83,5.0,9.0,49,0.00,,,0.00,weatherlink.com 1.10,2013-02-16 22:30:00,
2013-02-16 15:45:00,40.2,22.0,30.36,East,95,6.0,8.0,49,0.00,,,0.00,weatherlink.com 1.10,2013-02-16 22:45:00,
2013-02-16 16:00:00,41.9,22.0,30.35,ESE,106,0.0,5.0,45,0.00,,,0.00,weatherlink.com 1.10,2013-02-16 23:00:00,
2013-02-16 16:15:00,45.4,22.0,30.35,ESE,106,0.0,2.0,40,0.00,,,0.00,weatherlink.com 1.10,2013-02-16 23:15:00,
2013-02-16 16:31:00,42.1,22.0,30.35,ESE,106,4.0,5.0,45,0.00,,,0.00,weatherlink.com 1.10,2013-02-16 23:31:00,
2013-02-16 16:46:00,42.6,21.0,30.34,ESE,106,1.0,2.0,43,0.00,,,0.00,weatherlink.com 1.10,2013-02-16 23:46:00,
2013-02-16 17:01:00,42.5,25.0,30.34,ESE,106,0.0,3.0,50,0.00,,,0.00,weatherlink.com 1.10,2013-02-17 00:01:00,
2013-02-16 17:16:00,40.3,23.0,30.33,ESE,106,2.0,3.0,51,0.00,,,0.00,weatherlink.com 1.10,2013-02-17 00:16:00,
2013-02-16 17:31:00,36.3,22.0,30.33,SW,220,0.0,7.0,56,0.00,,,0.00,weatherlink.com 1.10,2013-02-17 00:31:00,
2013-02-16 17:46:00,34.7,21.0,30.33,SW,223,3.0,4.0,57,0.00,,,0.00,weatherlink.com 1.10,2013-02-17 00:46:00,
2013-02-16 18:01:00,34.3,21.0,30.33,SW,217,5.0,7.0,58,0.00,,,0.00,weatherlink.com 1.10,2013-02-17 01:01:00,
2013-02-16 18:16:00,33.1,20.0,30.33,SW,219,4.0,8.0,59,0.00,,,0.00,weatherlink.com 1.10,2013-02-17 01:16:00,
2013-02-16 18:31:00,32.4,20.0,30.32,SW,236,3.0,6.0,61,0.00,,,0.00,weatherlink.com 1.10,2013-02-17 01:31:00,
2013-02-16 18:46:00,32.7,20.0,30.32,West,259,5.0,10.0,59,0.00,,,0.00,weatherlink.com 1.10,2013-02-17 01:46:00,
2013-02-16 19:01:00,31.2,19.0,30.32,WSW,242,4.0,6.0,61,0.00,,,0.00,weatherlink.com 1.10,2013-02-17 02:01:00,
2013-02-16 19:16:00,30.6,18.0,30.31,WSW,241,4.0,6.0,60,0.00,,,0.00,weatherlink.com 1.10,2013-02-17 02:16:00,
2013-02-16 19:31:00,29.8,17.0,30.30,WSW,244,3.0,4.0,60,0.00,,,0.00,weatherlink.com 1.10,2013-02-17 02:31:00,
2013-02-16 19:46:00,29.3,16.0,30.30,West,260,5.0,6.0,58,0.00,,,0.00,weatherlink.com 1.10,2013-02-17 02:46:00,
2013-02-16 20:01:00,28.4,16.0,30.30,West,270,2.0,5.0,61,0.00,,,0.00,weatherlink.com 1.10,2013-02-17 03:01:00,
2013-02-16 20:16:00,27.2,16.0,30.30,West,280,4.0,4.0,64,0.00,,,0.00,weatherlink.com 1.10,2013-02-17 03:16:00,
2013-02-16 20:31:00,26.6,16.0,30.30,WSW,250,2.0,6.0,64,0.00,,,0.00,weatherlink.com 1.10,2013-02-17 03:31:00,
2013-02-16 20:46:00,26.0,15.0,30.29,SW,227,5.0,6.0,63,0.00,,,0.00,weatherlink.com 1.10,2013-02-17 03:46:00,
2013-02-16 21:01:00,26.4,14.0,30.28,WSW,257,6.0,7.0,60,0.00,,,0.00,weatherlink.com 1.10,2013-02-17 04:01:00,
2013-02-16 21:16:00,26.6,14.0,30.27,WSW,239,3.0,8.0,59,0.00,,,0.00,weatherlink.com 1.10,2013-02-17 04:16:00,
2013-02-16 21:31:00,27.2,13.0,30.26,WSW,239,3.0,6.0,56,0.00,,,0.00,weatherlink.com 1.10,2013-02-17 04:31:00,
2013-02-16 21:46:00,27.0,14.0,30.26,WSW,239,2.0,4.0,59,0.00,,,0.00,weatherlink.com 1.10,2013-02-17 04:46:00,
2013-02-16 22:01:00,27.8,14.0,30.25,West,277,5.0,7.0,56,0.00,,,0.00,weatherlink.com 1.10,2013-02-17 05:01:00,
2013-02-16 22:15:00,28.7,13.0,30.23,South,175,0.0,4.0,53,0.00,,,0.00,weatherlink.com 1.10,2013-02-17 05:15:00,
2013-02-16 22:31:00,29.3,13.0,30.22,SW,220,6.0,11.0,50,0.00,,,0.00,weatherlink.com 1.10,2013-02-17 05:31:00,
2013-02-16 22:46:00,29.3,13.0,30.21,SSW,212,5.0,8.0,50,0.00,,,0.00,weatherlink.com 1.10,2013-02-17 05:46:00,
2013-02-16 23:01:00,29.0,13.0,30.20,West,279,5.0,6.0,52,0.00,,,0.00,weatherlink.com 1.10,2013-02-17 06:01:00,
2013-02-16 23:16:00,28.1,13.0,30.19,WSW,257,0.0,4.0,53,0.00,,,0.00,weatherlink.com 1.10,2013-02-17 06:16:00,
2013-02-16 23:31:00,27.5,12.0,30.18,WNW,283,2.0,6.0,53,0.00,,,0.00,weatherlink.com 1.10,2013-02-17 06:31:00,
2013-02-16 23:45:00,26.6,12.0,30.18,SW,218,2.0,5.0,55,0.00,,,0.00,weatherlink.com 1.10,2013-02-17 06:45:00,